Theta_e
315 315 322 328 326 325 331 334 331 335 337 334 335 338 338 338 338 338 340 337 333 328 325 330 335 336 336 337 337 338 338 338 338 338 338 337 335 333 334 334 332 331 322 316 321 321 314 312 311
314 316 322 327 327 324 325 328 336 335 336 334 334 336 338 339 341 339 338 334 330 327 325 332 335 336 335 337 336 337 337 337 336 336 336 336 335 336 336 333 330 322 314 313 312 312 312 313 318
312 320 323 318 317 323 324 329 333 333 335 336 337 333 338 341 340 338 336 331 329 326 325 333 335 335 336 336 336 337 336 334 335 336 336 336 336 335 331 331 332 327 316 314 314 313 320 325 329
313 319 322 317 318 318 322 327 330 330 331 330 335 338 338 341 341 340 334 330 328 326 325 333 335 335 335 336 336 337 336 334 334 334 335 335 334 333 332 334 322 315 313 312 313 320 326 328 330
316 319 316 315 316 317 319 321 330 330 333 334 339 339 338 341 341 337 331 330 327 326 325 332 334 333 333 335 336 336 336 337 336 336 337 336 336 335 333 324 318 318 317 314 318 327 329 329 330
317 314 313 317 317 318 318 321 331 332 332 331 338 338 339 341 339 335 331 330 327 325 325 328 331 328 329 330 332 330 333 336 336 337 338 338 335 330 323 320 322 320 319 316 319 326 327 328 330
315 310 312 313 315 316 318 321 329 331 329 328 339 340 340 339 339 336 331 331 328 325 324 326 328 327 327 329 328 322 323 334 336 337 334 326 327 322 320 324 326 325 324 323 324 327 330 330 329
318 311 316 313 315 315 318 319 320 327 332 331 332 339 338 339 338 336 331 330 328 326 324 324 326 329 329 328 329 323 318 323 331 331 327 324 322 321 322 325 327 327 326 324 327 327 326 325 327
317 313 314 314 315 317 318 315 318 335 340 337 340 337 338 339 339 338 337 332 329 327 323 322 325 326 326 328 330 325 317 316 318 324 325 320 319 323 325 325 325 326 325 324 326 325 324 322 331
311 310 315 313 315 316 317 316 317 321 338 334 337 338 337 340 339 339 338 333 331 328 324 321 322 323 325 325 326 325 315 316 315 324 324 321 323 326 326 326 325 324 325 324 323 323 321 320 330
310 313 312 314 316 317 317 316 317 320 336 333 331 337 339 340 339 339 338 337 334 328 323 321 320 323 322 322 321 323 314 314 314 319 321 321 325 326 326 326 324 322 320 319 321 321 319 321 331
309 310 310 313 313 313 313 316 315 316 323 334 331 337 339 341 340 340 340 337 333 328 323 320 319 321 322 316 320 320 314 313 312 316 317 320 325 324 322 323 321 318 316 322 324 326 327 331 335
307 309 312 312 311 312 313 313 314 315 319 336 333 337 339 340 341 340 338 337 332 327 323 318 318 320 316 315 320 316 314 313 314 316 319 321 321 319 318 316 314 314 322 327 330 331 332 333 333
309 309 310 311 310 311 312 312 314 316 320 339 338 337 337 338 339 338 338 337 335 329 321 318 317 317 315 316 318 313 313 313 314 314 316 315 314 313 313 321 321 323 331 330 331 331 331 331 329
309 308 310 309 311 310 312 311 311 316 333 339 338 338 338 337 337 338 338 337 336 329 321 318 317 315 314 316 315 312 313 315 317 317 319 316 319 317 319 329 330 331 332 332 334 332 330 330 331
308 308 308 310 310 310 310 311 311 315 340 338 338 337 338 337 338 338 338 337 336 333 326 322 317 318 315 312 313 312 314 324 327 324 322 324 326 326 327 327 328 331 331 334 333 332 332 331 331
307 308 308 308 310 310 308 311 312 314 339 339 338 338 338 338 337 337 337 337 336 334 331 326 321 324 325 324 327 327 315 327 326 325 326 327 328 330 331 329 329 333 332 333 333 333 333 332 329
310 308 305 307 308 307 308 307 309 313 328 339 339 338 338 337 336 336 336 337 336 333 331 327 322 326 328 329 330 331 328 322 329 324 329 330 331 331 332 330 332 333 334 334 334 333 332 331 328
310 308 307 308 307 308 308 310 309 308 314 337 338 338 338 338 337 335 336 336 335 334 332 330 325 328 330 331 331 331 331 332 331 329 332 331 333 332 334 330 334 333 332 333 333 332 332 329 326
310 310 308 308 309 308 309 307 307 310 309 328 338 338 338 338 337 334 334 336 335 334 332 331 328 327 330 332 332 332 331 333 332 332 332 332 334 333 333 332 333 332 332 331 333 333 331 329 327
310 310 310 309 309 308 310 307 308 308 311 312 333 338 338 338 337 336 333 335 335 334 332 329 330 325 329 332 333 331 332 333 333 332 333 333 333 334 333 331 333 332 331 331 333 332 331 329 327
309 311 311 310 308 307 307 309 308 308 310 312 318 337 338 338 337 337 333 334 334 334 333 331 330 327 328 331 331 331 332 333 332 332 332 331 333 334 332 333 333 334 333 331 331 331 331 330 329
310 311 310 310 308 307 308 307 307 308 310 312 313 331 336 338 338 334 332 333 333 334 333 332 331 328 326 329 330 330 330 331 333 332 333 332 332 332 332 334 333 333 332 331 331 331 330 329 329
309 311 311 309 308 309 309 308 310 308 311 312 313 317 333 336 337 337 332 331 332 333 332 332 331 330 328 325 327 330 331 332 333 333 334 333 333 333 331 330 332 331 330 330 331 330 329 329 329
308 310 310 310 309 309 310 308 310 309 309 312 313 310 327 333 337 337 333 330 331 331 331 331 331 331 330 328 325 328 332 332 333 333 333 333 333 334 334 333 332 332 331 330 330 329 329 328 328
307 309 311 311 309 309 310 309 310 310 324 325 323 322 318 331 336 336 334 330 330 331 332 331 331 331 330 330 328 325 331 333 332 333 333 333 331 333 335 332 332 332 332 331 330 329 329 328 327
312 310 310 310 311 310 309 309 311 324 322 323 329 330 318 329 335 336 334 332 331 331 332 332 332 331 331 331 329 325 328 332 334 334 333 332 332 334 334 333 331 332 332 331 330 329 328 327 326
306 306 312 312 311 311 311 309 309 323 322 325 326 328 328 333 335 335 333 332 332 332 332 332 332 332 331 331 331 328 326 331 335 334 334 333 332 333 334 332 332 332 331 331 330 328 327 326 323
305 304 306 308 313 311 310 309 317 318 321 324 324 323 324 326 330 333 333 333 333 333 333 333 332 332 332 332 331 330 327 332 333 335 334 334 334 333 334 331 330 331 331 330 329 328 326 323 319
303 301 303 307 309 308 310 310 315 316 316 321 322 319 320 322 327 330 332 333 333 333 333 333 333 332 332 333 333 332 329 333 333 334 334 335 335 333 333 332 329 329 330 329 329 328 325 321 318
Wind_Speed
8 5 5 7 2 3 3 6 3 4 2 8 10 4 10 11 8 4 17 26 34 29 24 21 20 22 24 27 25 27 29 30 32 31 32 34 33 30 28 25 24 23 21 22 20 19 19 20 20
7 9 9 3 4 2 4 4 6 9 15 12 14 6 14 9 6 18 31 34 32 29 25 23 23 24 26 27 27 30 31 30 31 32 31 33 31 30 26 26 25 20 20 22 22 22 24 24 24
7 11 5 4 5 7 5 5 7 7 25 17 8 6 12 4 15 34 30 39 34 30 26 25 25 25 26 27 27 28 30 31 30 30 30 28 29 29 27 26 23 21 21 23 25 27 28 28 27
8 7 5 3 9 7 7 5 6 3 8 12 14 8 7 5 32 27 41 37 34 31 28 26 26 26 27 27 28 28 31 31 28 29 29 29 27 24 24 20 25 24 24 26 28 29 29 26 24
11 3 2 4 8 6 7 10 16 7 4 1 4 5 7 16 18 37 39 36 34 33 30 28 27 27 26 27 27 27 28 29 29 28 27 27 25 23 24 26 26 25 25 28 30 29 26 22 20
5 1 1 9 9 6 7 9 16 5 7 7 11 10 6 22 33 35 34 35 33 33 32 30 28 27 26 26 26 25 27 28 28 28 28 27 29 29 29 29 27 27 27 29 29 25 21 18 15
6 4 5 5 6 7 11 12 10 14 9 8 26 8 10 28 31 29 31 33 32 31 32 31 29 27 25 25 25 25 25 27 28 29 29 29 30 31 29 28 27 27 27 28 27 22 19 15 12
7 4 4 5 6 11 16 9 11 18 8 7 20 10 14 25 34 32 33 30 30 30 30 31 29 28 27 25 23 24 25 26 27 28 29 30 31 30 29 28 27 27 27 27 23 19 18 14 10
7 2 8 9 7 17 13 7 20 5 23 11 20 38 48 39 38 37 37 35 33 31 30 30 30 29 27 26 24 24 26 26 27 29 30 31 32 30 28 27 27 26 26 26 20 18 16 15 13
6 6 11 7 8 14 17 7 20 2 16 7 20 27 45 48 48 46 43 41 38 35 32 30 29 29 29 28 26 24 26 28 30 31 31 31 31 29 28 27 26 25 24 23 18 14 14 13 14
6 14 7 16 20 28 26 20 20 6 11 27 31 39 47 52 52 49 44 41 39 35 33 31 30 29 29 29 28 26 27 28 28 29 30 31 30 29 26 26 24 23 22 21 17 13 11 11 10
9 5 9 25 26 26 18 15 16 17 13 31 43 57 55 52 55 52 46 40 37 37 34 32 30 30 28 29 29 29 30 29 30 31 31 31 30 27 25 24 23 21 21 19 16 11 5 4 9
11 5 26 33 28 32 31 20 19 26 20 24 43 57 55 52 51 48 42 37 35 37 35 34 32 30 29 29 30 30 32 32 31 32 30 28 27 26 24 23 22 22 19 17 16 13 7 11 8
6 26 29 31 31 32 22 20 10 29 16 29 46 47 46 48 51 46 42 39 36 35 36 36 34 31 30 31 31 32 33 33 32 30 28 26 25 25 25 27 26 22 20 14 14 12 9 11 12
17 15 17 18 23 17 23 17 10 29 23 34 42 46 43 44 43 46 44 41 38 35 36 38 36 34 31 31 31 32 34 34 33 29 27 27 26 27 27 24 22 19 17 17 18 12 9 9 9
7 5 11 20 15 14 11 22 11 20 32 32 39 44 43 47 54 47 43 41 39 36 37 38 39 36 32 32 31 32 36 34 29 28 26 29 25 22 21 20 18 20 23 22 19 15 13 8 7
7 18 21 8 14 5 10 18 16 20 34 33 35 39 43 44 45 48 46 44 41 39 38 40 41 40 34 34 32 29 34 32 29 28 29 27 24 19 16 18 18 21 27 24 20 16 12 10 10
23 16 9 12 4 8 13 12 11 17 31 34 36 38 42 42 47 51 53 48 44 41 39 41 44 42 39 36 32 30 32 32 27 32 33 29 25 23 21 21 21 25 27 24 20 16 12 9 11
18 12 16 14 7 7 13 18 18 12 18 27 31 36 40 44 47 48 52 54 48 46 43 44 46 45 44 41 41 39 37 33 31 35 32 29 27 30 25 23 26 26 21 20 20 17 16 15 13
19 22 22 9 8 12 17 14 11 12 8 30 32 32 39 42 39 41 50 57 55 51 49 48 47 47 49 42 43 41 38 35 34 31 29 28 28 30 27 27 25 24 21 20 21 21 21 17 17
21 22 23 15 2 6 2 10 11 11 18 17 39 46 40 45 44 44 52 58 58 56 55 50 51 49 52 48 45 40 36 35 33 34 32 31 34 31 32 29 29 26 25 25 24 24 23 21 20
22 23 19 11 4 8 8 12 7 7 12 17 23 38 41 42 47 56 56 57 59 60 56 52 51 50 54 52 50 48 48 43 39 37 35 34 36 32 31 32 30 28 27 27 25 24 21 20 20
24 16 10 13 7 8 12 2 8 4 11 20 18 37 43 46 47 47 56 61 58 61 61 57 54 51 53 53 51 50 50 46 43 39 37 34 35 35 34 36 33 29 29 28 25 24 25 23 23
18 8 6 2 7 11 22 8 14 6 14 22 19 28 41 44 50 54 60 56 59 60 62 59 59 55 53 52 50 52 48 48 46 42 40 39 37 35 34 37 35 30 30 30 28 26 26 25 24
8 13 7 7 5 8 13 7 13 9 12 18 20 24 40 45 46 49 50 47 52 52 54 55 58 57 53 51 51 54 50 50 51 46 46 44 42 39 36 36 35 32 30 29 28 27 26 26 26
8 10 5 8 7 13 14 5 8 10 1 4 5 5 34 45 48 53 50 50 56 58 59 59 61 58 53 51 52 53 50 46 50 45 46 43 41 39 35 35 35 33 30 29 28 27 25 25 26
5 8 5 8 4 2 4 6 5 4 6 8 11 15 13 41 47 48 51 55 54 60 57 58 56 56 54 51 49 49 53 48 47 47 45 41 40 37 33 34 36 35 32 29 29 30 27 25 25
13 7 6 1 10 14 1 4 6 6 5 8 10 11 12 10 32 36 44 51 54 55 55 55 55 58 56 51 49 48 51 51 45 47 48 46 41 37 33 32 35 34 33 33 32 28 25 25 28
12 10 7 4 4 10 5 5 8 4 7 12 11 14 19 17 16 29 39 45 53 51 49 47 46 50 48 48 46 47 50 52 46 46 46 46 42 39 37 32 35 35 36 34 29 26 26 28 28
10 15 13 4 8 4 2 4 15 8 12 14 16 20 21 21 15 19 26 38 42 41 38 40 41 44 46 46 47 45 52 48 48 46 47 46 44 44 39 34 33 34 34 31 29 25 27 27 26
Wind_Direction
237 218 181 166 78 73 241 255 111 166 177 160 113 258 270 295 263 209 154 155 158 149 147 143 139 133 132 138 135 134 134 135 134 135 140 140 137 138 135 136 131 132 123 124 130 132 132 127 127
222 198 188 184 118 176 245 219 166 195 199 176 112 294 273 264 249 148 151 155 157 149 146 143 141 134 133 138 133 136 135 137 136 136 138 139 138 139 138 131 126 129 127 128 130 130 129 126 121
210 197 179 165 170 203 202 197 193 210 200 173 151 30 285 179 183 148 158 154 151 148 146 143 143 137 134 136 138 138 139 138 135 137 141 143 143 134 134 132 133 134 135 129 134 131 129 126 120
194 200 245 182 229 246 184 200 206 232 258 229 186 128 151 199 148 162 158 155 153 148 147 145 143 140 137 136 138 138 145 147 145 143 139 139 135 144 141 139 137 136 132 132 136 136 133 130 126
191 199 238 237 241 248 240 226 217 213 223 125 150 118 90 180 172 151 157 156 155 150 148 147 147 142 138 138 138 139 141 147 149 145 146 151 147 152 142 140 135 132 131 132 137 137 135 132 122
191 195 134 239 242 255 264 243 194 212 194 155 85 82 44 158 151 157 160 159 157 154 150 149 149 146 141 139 139 142 143 146 149 149 149 151 151 144 140 136 134 133 130 132 138 136 134 123 128
167 111 232 242 258 278 260 196 204 211 189 201 150 94 136 149 150 155 160 163 160 158 154 154 156 153 147 144 144 144 148 148 147 146 145 144 141 140 139 135 133 129 129 131 132 135 131 134 137
216 115 250 234 240 277 268 276 275 201 186 123 155 131 193 169 158 155 159 164 165 163 160 157 161 159 155 151 150 146 147 152 153 149 148 145 144 142 140 138 135 132 132 134 133 132 133 122 106
207 154 241 235 210 253 288 312 309 164 136 171 179 163 174 176 167 164 163 164 168 168 166 163 164 163 158 155 154 151 150 151 154 152 150 148 147 145 141 138 136 136 137 138 139 134 133 125 112
183 208 230 205 225 262 280 273 308 306 171 173 146 171 170 168 171 170 170 168 170 171 170 169 169 167 163 160 158 156 155 152 153 154 153 151 149 147 146 143 139 139 141 144 150 147 139 136 126
214 233 238 260 252 262 270 273 289 319 194 177 179 160 165 168 172 173 176 175 174 175 172 172 171 171 168 163 161 159 157 153 153 154 154 154 153 153 150 146 144 145 148 152 158 158 153 144 144
258 255 225 264 263 270 266 281 283 273 237 222 176 168 168 169 171 174 177 175 175 177 176 174 173 174 171 167 163 161 159 156 155 156 157 157 157 156 155 152 151 151 148 151 156 163 171 172 149
241 235 255 263 264 262 271 261 261 278 291 216 174 166 168 171 172 176 178 175 176 178 179 175 174 175 173 169 165 164 161 159 157 158 158 161 161 158 154 152 156 155 154 162 167 173 155 170 163
272 235 248 255 258 259 261 264 230 266 270 173 163 167 167 170 177 176 178 177 180 182 181 176 174 175 174 171 168 166 165 161 161 161 160 161 158 155 153 151 153 154 157 166 175 183 193 198 204
275 253 260 249 251 251 258 272 206 256 191 170 172 167 173 172 173 184 184 180 181 183 181 178 172 172 173 175 170 169 167 167 167 166 162 157 157 156 157 157 161 164 179 191 184 194 193 180 181
305 267 246 249 241 248 166 260 241 227 169 183 179 173 175 178 186 189 188 186 186 181 180 178 172 168 169 173 167 169 171 170 171 172 162 159 161 165 172 178 188 192 183 183 195 194 178 191 210
219 246 242 257 235 213 179 252 249 217 177 186 189 182 177 182 184 187 190 191 190 187 180 180 177 170 171 174 170 167 175 176 176 176 165 166 167 180 192 196 195 190 186 188 194 193 211 218 198
233 233 254 230 212 185 241 249 270 229 180 185 192 188 183 182 185 193 191 195 193 191 187 182 180 174 173 177 177 177 176 179 182 178 170 175 182 186 193 192 189 179 180 185 192 207 215 219 207
277 258 242 243 211 191 231 244 254 252 170 184 193 190 188 187 188 194 194 194 195 192 190 186 184 179 178 185 189 186 187 180 177 180 179 181 192 198 198 192 191 187 200 203 205 211 216 204 204
247 253 254 263 209 200 241 253 248 250 222 181 186 200 191 190 189 189 194 194 194 197 193 192 190 185 183 190 186 186 187 187 188 184 188 195 195 195 193 192 194 201 204 205 208 217 210 210 213
241 235 240 235 198 266 241 269 249 255 242 196 191 194 195 192 187 191 192 193 196 197 197 196 195 191 188 189 187 189 189 190 194 193 195 203 200 200 199 200 205 211 211 210 215 220 222 211 212
245 234 237 232 168 246 159 256 253 238 235 233 185 191 196 198 193 190 196 192 197 198 201 198 198 196 193 192 190 193 190 193 195 195 196 200 199 198 205 201 206 212 216 216 214 218 227 235 230
249 231 224 214 212 252 256 290 261 281 248 223 202 193 196 196 194 190 190 194 203 200 201 201 199 200 199 199 197 198 194 197 198 199 199 199 203 209 212 209 211 215 220 217 217 219 226 234 232
257 241 252 184 220 241 250 183 263 238 241 225 212 188 195 197 196 197 194 194 200 200 198 200 200 200 200 201 201 200 197 197 196 198 199 200 205 210 212 214 216 217 215 217 219 224 232 233 234
221 207 229 231 235 235 239 186 232 249 242 229 198 179 197 199 195 197 195 190 192 192 193 197 201 201 203 201 203 201 202 203 201 199 201 202 206 211 213 214 214 214 215 219 222 224 231 231 229
233 200 187 202 212 241 242 223 241 234 360 356 60 235 196 195 196 196 195 190 196 197 200 200 203 203 204 204 205 204 204 209 208 207 206 208 211 214 216 216 217 219 219 220 224 226 228 230 231
322 198 222 201 222 199 196 226 275 133 61 43 42 49 198 196 193 192 191 191 192 197 199 202 204 204 206 208 209 208 207 211 213 213 214 212 215 217 220 224 221 220 222 224 225 224 222 227 232
38 9 34 21 213 233 270 219 209 178 113 71 54 61 57 178 190 184 181 184 189 197 200 203 207 205 207 208 213 211 209 210 218 218 217 215 218 220 223 226 224 222 222 225 225 227 229 232 232
16 23 351 286 299 204 159 258 343 74 91 101 80 64 68 91 124 158 174 179 186 193 197 202 205 207 206 210 214 216 212 211 218 222 224 221 222 227 224 225 224 221 222 225 227 228 231 229 230
49 20 15 13 344 329 261 66 14 60 104 97 86 71 66 81 102 157 163 172 178 187 192 200 203 205 210 212 213 218 212 215 217 218 223 224 225 224 222 223 223 221 219 223 227 230 232 232 234